This demonstration page uses our WeatherBlox Daily Observations layout. Learn more.

Left ArrowRight Arrow

Hourly Observations for December 5, 2022

Temp ( °F °C ) Dew Point ( °F °C ) Humidity (%) Winds ( mph kmh ) Pressure ( in mb ) Visibility ( mi km ) Precip ( " mm )
12:15 am 00:15 Clear 32 0.1 16 -9 50 50 SE 6 9 29.87 1012 10 16 0.00 0.00
12:35 am 00:35 Partly Cloudy 30 -1.3 15 -9.2 55 55 ENE 5 7 29.88 1012 10 16 0.00 0.00
12:55 am 00:55 Partly Cloudy 28 -2 16 -9 59 59 Calm 29.88 1012 10 16 0.00 0.00
1:15 am 01:15 Partly Cloudy 25 -3.8 14 -9.8 63 63 Calm 29.88 1012 10 16 0.00 0.00
1:35 am 01:35 Clear 25 -4.1 14 -10 63 63 WNW 3 6 29.89 1012 10 16 0.00 0.00
1:55 am 01:55 Clear 25 -4.1 14 -10 63 63 W 8 13 29.89 1012 10 16 0.00 0.00
2:15 am 02:15 Partly Cloudy 29 -1.9 16 -9.1 58 58 WNW 6 9 29.86 1011 10 16 0.00 0.00
2:35 am 02:35 Partly Cloudy 28 -2.5 17 -8.6 63 63 NW 6 9 29.87 1012 10 16 0.00 0.00
2:55 am 02:55 Clear 29 -1.5 16 -8.9 57 57 Calm 29.86 1011 10 16 0.00 0.00
3:15 am 03:15 Clear 26 -3.2 15 -9.5 62 62 NW 7 11 29.88 1012 10 16 0.00 0.00
3:35 am 03:35 Clear 25 -3.9 15 -9.4 65 65 NW 8 13 29.90 1012 10 16 0.00 0.00
3:55 am 03:55 Clear 26 -3.5 15 -9.2 65 65 NW 8 13 29.88 1012 10 16 0.00 0.00
4:15 am 04:15 Clear 26 -3.4 15 -9.3 64 64 NNW 6 9 29.87 1012 10 16 0.00 0.00
4:35 am 04:35 Clear 25 -4.1 15 -9.7 65 65 NNW 8 13 29.88 1012 10 16 0.00 0.00
4:55 am 04:55 Clear 24 -4.6 14 -9.8 67 67 NNW 7 11 29.87 1012 10 16 0.00 0.00
5:15 am 05:15 Clear 23 -5.2 14 -10.2 68 68 NW 7 11 29.89 1012 10 16 0.00 0.00
5:35 am 05:35 Clear 23 -5 14 -9.8 69 69 WNW 7 11 29.90 1012 10 16 0.00 0.00
5:55 am 05:55 Clear 22 -5.7 14 -10.2 70 70 NNW 6 9 29.88 1012 10 16 0.00 0.00
6:15 am 06:15 Clear 23 -4.9 15 -9.7 69 69 WNW 6 9 29.89 1012 10 16 0.00 0.00
6:35 am 06:35 Clear 25 -3.7 16 -8.9 67 67 NNW 6 9 29.89 1012 10 16 0.00 0.00
6:55 am 06:55 Clear 31 -0.6 21 -6.1 66 66 N 12 19 29.86 1011 10 16 0.00 0.00
7:15 am 07:15 Clear 32 0 20 -6.4 62 62 NNE 12 19 29.86 1011 10 16 0.00 0.00
7:35 am 07:35 Clear 32 0 20 -6.8 60 60 NNE 10 17 29.87 1011 10 16 0.00 0.00
7:55 am 07:55 Sunny 32 -0.1 19 -7.1 59 59 NE 10 17 29.88 1012 10 16 0.00 0.00
8:35 am 08:35 Sunny 32 0 19 -7 59 59 NNE 10 17 29.91 1013 10 16 0.00 0.00
8:55 am 08:55 Sunny 32 0 20 -6.8 60 60 NNE 12 19 29.92 1013 10 16 0.00 0.00
9:15 am 09:15 Sunny 33 0.6 20 -6.6 58 58 N 8 13 29.93 1014 10 16 0.00 0.00
9:35 am 09:35 Sunny 34 1 20 -6.5 57 57 NE 8 13 29.94 1014 10 16 0.00 0.00
9:55 am 09:55 Sunny 34 1.2 20 -6.5 56 56 N 7 11 29.95 1014 10 16 0.00 0.00
10:15 am 10:15 Sunny 34 1.1 20 -6.5 57 57 NE 10 17 29.95 1014 10 16 0.00 0.00
10:35 am 10:35 Partly Cloudy 36 2.3 21 -6 54 54 NNE 13 20 29.94 1014 10 16 0.00 0.00
10:55 am 10:55 Partly Cloudy 37 2.5 21 -6.3 52 52 N 14 22 29.94 1014 10 16 0.00 0.00
11:15 am 11:15 Partly Cloudy 37 2.7 21 -6.3 51 51 N 5 7 29.93 1014 10 16 0.00 0.00
11:35 am 11:35 Sunny 35 1.7 20 -6.5 54 54 NNE 5 7 29.93 1014 10 16 0.00 0.00
11:55 am 11:55 Sunny 37 2.5 21 -6 53 53 N 12 19 29.92 1013 10 16 0.00 0.00
12:15 pm 12:15 Sunny 37 2.8 21 -5.9 53 53 N 14 22 29.92 1013 10 16 0.00 0.00
12:35 pm 12:35 Sunny 38 3.2 21 -6 51 51 N 13 20 29.91 1013 10 16 0.00 0.00
12:55 pm 12:55 Partly Cloudy 38 3.5 22 -5.8 50 50 N 14 22 29.91 1013 10 16 0.00 0.00
1:15 pm 13:15 Partly Cloudy 39 3.8 21 -5.9 49 49 N 12 19 29.91 1013 10 16 0.00 0.00
1:35 pm 13:35 Partly Cloudy 38 3.3 22 -5.8 51 51 N 9 15 29.90 1013 10 16 0.00 0.00
1:55 pm 13:55 Partly Cloudy 38 3.6 22 -5.8 50 50 N 10 17 29.90 1013 10 16 0.00 0.00
2:15 pm 14:15 Sunny 38 3.1 21 -6.1 51 51 NNE 10 17 29.89 1012 10 16 0.00 0.00
2:35 pm 14:35 Sunny 38 3.1 21 -5.9 52 52 N 14 22 29.92 1013 10 16 0.00 0.00
2:55 pm 14:55 Sunny 37 2.9 21 -6.2 51 51 N 18 30 29.93 1014 10 16 0.00 0.00
3:15 pm 15:15 Sunny 34 1.1 20 -6.5 57 57 N 16 26 29.96 1014 10 16 0.00 0.00
3:35 pm 15:35 Partly Cloudy 33 0.3 20 -6.5 60 60 N 14 22 29.96 1015 10 16 0.00 0.00
3:55 pm 15:55 Partly Cloudy 32 0 20 -6.7 61 61 NNE 13 20 29.99 1015 10 16 0.00 0.00
4:15 pm 16:15 Sunny 32 0 20 -6.7 61 61 NNE 8 13 29.98 1015 10 16 0.00 0.00
4:35 pm 16:35 Partly Cloudy 32 0 20 -6.8 60 60 NNE 8 13 29.99 1015 10 16 0.00 0.00
4:55 pm 16:55 Partly Cloudy 32 0 19 -7.1 59 59 NNE 9 15 30.00 1016 10 16 0.00 0.00
5:15 pm 17:15 Clear 32 0 19 -7.3 58 58 NNE 7 11 30.01 1016 10 16 0.00 0.00
5:35 pm 17:35 Clear 32 0 19 -7.3 58 58 NNE 8 13 30.01 1016 10 16 0.00 0.00
5:55 pm 17:55 Clear 30 -1 18 -7.7 60 60 NE 7 11 30.02 1017 10 16 0.00 0.00
6:15 pm 18:15 Clear 30 -1 18 -7.7 60 60 NNE 8 13 30.02 1017 10 16 0.00 0.00
6:35 pm 18:35 Clear 30 -1.1 19 -7.5 62 62 NNE 6 9 30.03 1017 10 16 0.00 0.00
6:55 pm 18:55 Clear 30 -1 18 -7.6 61 61 NE 10 17 30.02 1017 10 16 0.00 0.00
7:15 pm 19:15 Partly Cloudy 29 -1.5 18 -8 61 61 NNE 9 15 30.03 1017 10 16 0.00 0.00
7:35 pm 19:35 Partly Cloudy 30 -1.3 17 -8.1 60 60 NE 7 11 30.04 1017 10 16 0.00 0.00
7:55 pm 19:55 Clear 28 -2 16 -8.7 60 60 NE 8 13 30.05 1017 10 16 0.00 0.00
8:15 pm 20:15 Partly Cloudy 27 -2.7 15 -9.5 59 59 NE 7 11 30.06 1018 10 16 0.00 0.00
8:35 pm 20:35 Partly Cloudy 27 -3 15 -9.5 61 61 NE 6 9 30.06 1018 10 16 0.00 0.00
8:55 pm 20:55 Mostly Cloudy 27 -2.6 15 -9.2 60 60 ENE 5 7 30.05 1018 10 16 0.00 0.00
9:15 pm 21:15 Mostly Cloudy 27 -2.6 16 -9.1 61 61 E 5 7 30.05 1018 10 16 0.00 0.00
9:35 pm 21:35 Partly Cloudy 26 -3.1 15 -9.4 62 62 ENE 5 7 30.06 1018 10 16 0.00 0.00
9:55 pm 21:55 Partly Cloudy 26 -3.5 15 -9.4 64 64 ENE 3 6 30.06 1018 10 16 0.00 0.00
10:15 pm 22:15 Partly Cloudy 25 -4 15 -9.5 65 65 NE 5 7 30.07 1018 10 16 0.00 0.00
10:35 pm 22:35 Clear 25 -4.1 15 -9.4 66 66 ENE 3 6 30.06 1018 10 16 0.00 0.00
10:55 pm 22:55 Clear 25 -4.1 15 -9.3 67 67 Calm 30.07 1018 10 16 0.00 0.00
11:15 pm 23:15 Clear 25 -3.7 15 -9.2 66 66 SE 3 6 30.06 1018 10 16 0.00 0.00
11:35 pm 23:35 Partly Cloudy 26 -3.5 16 -9.1 65 65 NE 3 6 30.06 1018 10 16 0.00 0.00
11:55 pm 23:55 Mostly Cloudy 26 -3.5 16 -9.1 65 65 Calm 30.06 1018 10 16 0.00 0.00

Powered by AerisWeather